Flag Weather past 2 weeks in Bremerhaven, Bremen, Germany

Now
36 °F

Partly sunny.


Feels Like: 25 °F
Forecast: 29 / 35 °F
Wind: 18 mph from Southeast

Location: Nordholz

Current Time: Nov 28, 2014 at 2:36:50 PM

Latest Report: Nov 28, 2014 at 1:20 PM


Visibility: N/A

Pressure: 30.01 "Hg

Humidity: 75%

Dew point: 28 °F

Location of BremerhavenLocation

Historic Weather in Bremerhaven — Graph

°F

Bremerhaven temperature yesterday

Maximum temperature yesterday: 39 °F (at 12:00 AM)
Minimum temperature yesterday: 34 °F (at 5:20 AM)
Average temperature yesterday: 37 °F

Past Weeks' High & Low Weather Summary

 TemperatureHumidityPressure
High54 °F (Nov 14, 1:20 PM)100% (Nov 17, 4:20 AM)30.39 "Hg (Nov 17, 4:20 AM)
Low28 °F (Nov 21, 5:20 AM)71% (Nov 24, 11:20 AM)29.53 "Hg (Nov 16, 2:50 PM)
Average43 °F91%30.02 "Hg
* Reported Nov 13 1:20 PM — Nov 28 1:20 PM, Bremerhaven, Weather by CustomWeather, © 2014

Note: Actual official high and low records may vary slightly from our data, if they occured in-between our weather recording intervals... More about our weather records

Advertising

Bremerhaven weather history for previous 24 hours

 ConditionsComfort  
Time TempWeatherWind HumidityBarometerVisibility
1:20 PM
Nov 28
36 °FPartly sunny.18 mph75%30.01 "HgN/A
12:20 PM36 °FPartly sunny.17 mph75%30.01 "HgN/A
11:20 AM36 °FPartly sunny.18 mph75%30.01 "HgN/A
10:20 AM36 °FPartly sunny.21 mph81%30.01 "Hg5 mi
9:20 AM36 °FPartly sunny.18 mph81%29.98 "Hg4 mi
8:20 AM36 °FPartly sunny.17 mph81%29.98 "Hg6 mi
7:20 AM36 °FPassing clouds.16 mph81%29.98 "Hg6 mi
6:20 AM36 °FPassing clouds.17 mph81%29.95 "Hg6 mi
5:45 AM36 °FPassing clouds.16 mph87%29.95 "Hg6 mi
5:20 AM36 °FPassing clouds.16 mph87%29.95 "Hg5 mi
4:20 AM36 °FPassing clouds.16 mph87%29.92 "Hg5 mi
3:20 AM36 °FPassing clouds.16 mph87%29.95 "Hg5 mi
2:20 AM36 °FPassing clouds.15 mph87%29.92 "Hg5 mi
1:20 AM36 °FPassing clouds.14 mph87%29.92 "Hg5 mi
12:20 AM36 °FPassing clouds.14 mph87%29.92 "Hg6 mi
11:20 PM
Nov 27
36 °FPassing clouds.15 mph81%29.92 "HgN/A
10:20 PM36 °FPassing clouds.13 mph81%29.92 "HgN/A
9:20 PM36 °FPassing clouds.14 mph81%29.92 "HgN/A
8:20 PM36 °FPassing clouds.14 mph81%29.92 "Hg6 mi
7:20 PM36 °FPassing clouds.13 mph87%29.89 "Hg6 mi
6:20 PM37 °FPassing clouds.13 mph81%29.89 "Hg6 mi
5:20 PM37 °FPassing clouds.10 mph81%29.89 "Hg4 mi
4:20 PM37 °FFog.12 mph81%29.89 "Hg3 mi
3:20 PM37 °FPartly sunny.12 mph81%29.86 "Hg4 mi
2:20 PM37 °FPartly sunny.12 mph81%29.89 "Hg4 mi
Weather by CustomWeather, © 2014

See weather overviewHow to use our weather pages